{"data":{"norad_id":59241,"intl_designator":"2024-049L","name":"STARLINK-31427","alt_names":[],"object_type":"PAYLOAD","status":"ACTIVE","operator":null,"country":"US","launch_date":"2024-03-16","launch_site_code":"AFETR","launch_vehicle":null,"mission":null,"orbit_class":"UNKNOWN","rcs_meters":null,"size_class":null,"mass_kg":null,"dimensions":null,"purposes":["comms"],"wikipedia_slug":null,"has_3d_model":false,"image_url":null,"decayed_at":null,"tle_current":{"epoch":"2026-09-20T21:04:19.850592Z","epoch_age_seconds":126193,"freshness":"FRESH","line1":"1 59241U 24049L   26263.87800753  .00003936  00000+0  15259-3 0  9992","line2":"2 59241  43.0037 121.5270 0000845 262.1968  97.8788 15.27557606142254","mean_motion":15.27557606,"eccentricity":8.45e-5,"inclination_deg":43.0037,"raan_deg":121.527,"arg_perigee_deg":262.1968,"mean_anomaly_deg":97.8788,"bstar":0.00015259,"rev_number":14225,"period_min":94.268130664527,"perigee_km":482.53637665966,"apogee_km":483.69592844244,"semimajor_km":6861.253152551,"source":"CELESTRAK","updated_at":"2026-09-21T09:00:34.076355Z"}}}